Time,TemperatureF,DewpointF,PressureIn,WindDirection,WindDirectionDegrees,WindSpeedMPH,WindSpeedGustMPH,Humidity,HourlyPrecipIn,Conditions,Clouds,dailyrainin,SoftwareType,DateUTC
2013-05-27 00:08:00,55.5,53.0,30.01,SW,235,0.0,0.0,91,0.00,,,0.00,weatherlink.com 1.10,2013-05-27 07:08:00,
2013-05-27 00:23:00,55.4,53.0,30.01,SW,235,0.0,0.0,92,0.00,,,0.00,weatherlink.com 1.10,2013-05-27 07:23:00,
2013-05-27 00:38:00,55.1,53.0,30.00,SW,235,0.0,0.0,92,0.00,,,0.00,weatherlink.com 1.10,2013-05-27 07:38:00,
2013-05-27 00:53:00,54.8,53.0,30.00,SW,235,0.0,0.0,92,0.00,,,0.00,weatherlink.com 1.10,2013-05-27 07:53:00,
2013-05-27 01:08:00,54.4,52.0,30.00,SW,235,0.0,0.0,92,0.00,,,0.00,weatherlink.com 1.10,2013-05-27 08:08:00,
2013-05-27 01:23:00,53.5,51.0,30.00,SW,235,0.0,0.0,92,0.00,,,0.00,weatherlink.com 1.10,2013-05-27 08:23:00,
2013-05-27 01:38:00,53.3,51.0,30.00,SW,235,0.0,0.0,93,0.00,,,0.00,weatherlink.com 1.10,2013-05-27 08:38:00,
2013-05-27 01:53:00,53.6,51.0,30.00,ENE,69,0.0,1.0,91,0.00,,,0.00,weatherlink.com 1.10,2013-05-27 08:53:00,
2013-05-27 02:08:00,53.8,51.0,29.99,East,88,0.0,1.0,89,0.00,,,0.00,weatherlink.com 1.10,2013-05-27 09:08:00,
2013-05-27 02:23:00,53.2,50.0,29.99,East,88,0.0,0.0,89,0.00,,,0.00,weatherlink.com 1.10,2013-05-27 09:23:00,
2013-05-27 02:38:00,52.4,49.0,29.98,East,88,0.0,0.0,89,0.00,,,0.00,weatherlink.com 1.10,2013-05-27 09:38:00,
2013-05-27 02:53:00,52.3,50.0,29.98,East,84,0.0,1.0,91,0.00,,,0.00,weatherlink.com 1.10,2013-05-27 09:53:00,
2013-05-27 03:08:00,52.6,50.0,29.98,ENE,67,2.0,4.0,90,0.00,,,0.00,weatherlink.com 1.10,2013-05-27 10:08:00,
2013-05-27 03:23:00,52.7,50.0,29.97,ENE,69,1.0,1.0,90,0.00,,,0.00,weatherlink.com 1.10,2013-05-27 10:23:00,
2013-05-27 03:38:00,53.4,51.0,29.97,ENE,64,0.0,3.0,90,0.00,,,0.00,weatherlink.com 1.10,2013-05-27 10:38:00,
2013-05-27 03:53:00,53.7,51.0,29.96,NE,49,1.0,2.0,90,0.00,,,0.00,weatherlink.com 1.10,2013-05-27 10:53:00,
2013-05-27 04:08:00,54.0,52.0,29.95,ENE,64,0.0,3.0,91,0.00,,,0.00,weatherlink.com 1.10,2013-05-27 11:08:00,
2013-05-27 04:23:00,54.0,52.0,29.95,East,86,0.0,2.0,91,0.00,,,0.00,weatherlink.com 1.10,2013-05-27 11:23:00,
2013-05-27 04:38:00,53.8,51.0,29.95,ENE,65,2.0,3.0,91,0.00,,,0.00,weatherlink.com 1.10,2013-05-27 11:38:00,
2013-05-27 04:53:00,54.0,52.0,29.95,ENE,73,0.0,2.0,91,0.00,,,0.00,weatherlink.com 1.10,2013-05-27 11:53:00,
2013-05-27 05:08:00,54.2,51.0,29.95,NNE,27,2.0,3.0,90,0.00,,,0.00,weatherlink.com 1.10,2013-05-27 12:08:00,
2013-05-27 05:23:00,54.0,51.0,29.95,SW,222,0.0,1.0,90,0.00,,,0.00,weatherlink.com 1.10,2013-05-27 12:23:00,
2013-05-27 05:38:00,53.1,50.0,29.96,WSW,248,0.0,0.0,90,0.00,,,0.00,weatherlink.com 1.10,2013-05-27 12:38:00,
2013-05-27 05:53:00,52.5,50.0,29.96,WSW,248,0.0,0.0,91,0.00,,,0.00,weatherlink.com 1.10,2013-05-27 12:53:00,
2013-05-27 06:08:00,52.1,50.0,29.97,WSW,248,0.0,0.0,92,0.00,,,0.00,weatherlink.com 1.10,2013-05-27 13:08:00,
2013-05-27 06:23:00,52.7,50.0,29.97,NNE,32,0.0,1.0,91,0.00,,,0.00,weatherlink.com 1.10,2013-05-27 13:23:00,
2013-05-27 06:39:00,54.0,52.0,29.97,NW,314,0.0,1.0,91,0.00,,,0.00,weatherlink.com 1.10,2013-05-27 13:39:00,
2013-05-27 06:54:00,55.9,53.0,29.97,NW,314,0.0,0.0,90,0.00,,,0.00,weatherlink.com 1.10,2013-05-27 13:54:00,
2013-05-27 07:09:00,57.8,54.0,29.98,ESE,114,0.0,1.0,86,0.00,,,0.00,weatherlink.com 1.10,2013-05-27 14:09:00,
2013-05-27 07:24:00,59.6,54.0,29.99,East,88,0.0,1.0,81,0.00,,,0.00,weatherlink.com 1.10,2013-05-27 14:24:00,
2013-05-27 07:39:00,59.4,53.0,29.99,ENE,69,0.0,1.0,80,0.00,,,0.00,weatherlink.com 1.10,2013-05-27 14:39:00,
2013-05-27 07:54:00,61.3,55.0,29.99,WSW,237,2.0,4.0,81,0.00,,,0.00,weatherlink.com 1.10,2013-05-27 14:54:00,
2013-05-27 08:09:00,62.1,56.0,29.99,WSW,255,5.0,5.0,81,0.00,,,0.00,weatherlink.com 1.10,2013-05-27 15:09:00,
2013-05-27 08:24:00,62.6,56.0,29.99,WSW,251,0.0,6.0,79,0.00,,,0.00,weatherlink.com 1.10,2013-05-27 15:24:00,
2013-05-27 08:39:00,63.3,56.0,29.99,West,262,2.0,5.0,78,0.00,,,0.00,weatherlink.com 1.10,2013-05-27 15:39:00,
2013-05-27 08:54:00,64.3,56.0,29.99,West,280,2.0,4.0,75,0.00,,,0.00,weatherlink.com 1.10,2013-05-27 15:54:00,
2013-05-27 09:09:00,65.4,57.0,29.99,West,275,4.0,6.0,73,0.00,,,0.00,weatherlink.com 1.10,2013-05-27 16:09:00,
2013-05-27 09:24:00,66.5,57.0,29.98,WSW,245,4.0,5.0,71,0.00,,,0.00,weatherlink.com 1.10,2013-05-27 16:24:00,
2013-05-27 09:39:00,68.1,57.0,29.98,SW,228,0.0,4.0,68,0.00,,,0.00,weatherlink.com 1.10,2013-05-27 16:39:00,
2013-05-27 09:54:00,69.2,57.0,29.97,SSW,210,1.0,5.0,66,0.00,,,0.00,weatherlink.com 1.10,2013-05-27 16:54:00,
2013-05-27 10:09:00,70.8,57.0,29.97,SW,231,2.0,5.0,62,0.00,,,0.00,weatherlink.com 1.10,2013-05-27 17:09:00,
2013-05-27 10:24:00,70.6,57.0,29.97,WSW,238,1.0,5.0,62,0.00,,,0.00,weatherlink.com 1.10,2013-05-27 17:24:00,
2013-05-27 10:39:00,71.5,57.0,29.96,WSW,251,0.0,9.0,61,0.00,,,0.00,weatherlink.com 1.10,2013-05-27 17:39:00,
2013-05-27 10:54:00,72.0,57.0,29.96,WSW,240,2.0,7.0,60,0.00,,,0.00,weatherlink.com 1.10,2013-05-27 17:54:00,
2013-05-27 11:09:00,71.8,57.0,29.95,West,261,2.0,6.0,61,0.00,,,0.00,weatherlink.com 1.10,2013-05-27 18:09:00,
2013-05-27 11:24:00,72.0,57.0,29.95,SSW,193,3.0,6.0,60,0.00,,,0.00,weatherlink.com 1.10,2013-05-27 18:24:00,
2013-05-27 11:39:00,73.2,57.0,29.95,SW,219,1.0,7.0,57,0.00,,,0.00,weatherlink.com 1.10,2013-05-27 18:39:00,
2013-05-27 11:54:00,73.1,57.0,29.95,South,178,2.0,9.0,57,0.00,,,0.00,weatherlink.com 1.10,2013-05-27 18:54:00,
2013-05-27 12:09:00,72.6,56.0,29.94,WSW,241,4.0,8.0,57,0.00,,,0.00,weatherlink.com 1.10,2013-05-27 19:09:00,
2013-05-27 12:24:00,72.1,55.0,29.94,SSW,195,3.0,11.0,56,0.00,,,0.00,weatherlink.com 1.10,2013-05-27 19:24:00,
2013-05-27 12:39:00,72.3,55.0,29.94,SW,232,6.0,8.0,54,0.00,,,0.00,weatherlink.com 1.10,2013-05-27 19:39:00,
2013-05-27 12:54:00,72.6,55.0,29.94,SSW,210,1.0,7.0,55,0.00,,,0.00,weatherlink.com 1.10,2013-05-27 19:54:00,
2013-05-27 13:10:00,72.7,57.0,29.93,SSW,207,2.0,5.0,58,0.00,,,0.00,weatherlink.com 1.10,2013-05-27 20:10:00,
2013-05-27 13:25:00,73.0,57.0,29.92,West,262,2.0,7.0,57,0.00,,,0.00,weatherlink.com 1.10,2013-05-27 20:25:00,
2013-05-27 13:40:00,73.0,56.0,29.92,SSW,202,2.0,10.0,55,0.00,,,0.00,weatherlink.com 1.10,2013-05-27 20:40:00,
2013-05-27 13:55:00,72.9,56.0,29.92,WSW,238,7.0,10.0,56,0.00,,,0.00,weatherlink.com 1.10,2013-05-27 20:55:00,
2013-05-27 14:10:00,73.7,56.0,29.91,SW,234,2.0,9.0,55,0.00,,,0.00,weatherlink.com 1.10,2013-05-27 21:10:00,
2013-05-27 14:25:00,74.2,57.0,29.91,SE,129,1.0,8.0,56,0.00,,,0.00,weatherlink.com 1.10,2013-05-27 21:25:00,
2013-05-27 14:40:00,73.9,56.0,29.90,WNW,293,1.0,7.0,53,0.00,,,0.00,weatherlink.com 1.10,2013-05-27 21:40:00,
2013-05-27 14:55:00,74.2,56.0,29.90,SSW,210,1.0,9.0,53,0.00,,,0.00,weatherlink.com 1.10,2013-05-27 21:55:00,
2013-05-27 15:10:00,73.6,56.0,29.90,South,176,1.0,8.0,55,0.00,,,0.00,weatherlink.com 1.10,2013-05-27 22:10:00,
2013-05-27 15:25:00,73.5,55.0,29.90,SSW,213,2.0,7.0,53,0.00,,,0.00,weatherlink.com 1.10,2013-05-27 22:25:00,
2013-05-27 15:40:00,73.8,55.0,29.89,SSW,193,1.0,5.0,53,0.00,,,0.00,weatherlink.com 1.10,2013-05-27 22:40:00,
2013-05-27 15:55:00,74.0,57.0,29.89,SSE,155,6.0,6.0,55,0.00,,,0.00,weatherlink.com 1.10,2013-05-27 22:55:00,
2013-05-27 16:10:00,71.9,56.0,29.89,SSW,200,4.0,9.0,57,0.00,,,0.00,weatherlink.com 1.10,2013-05-27 23:10:00,
2013-05-27 16:25:00,72.9,56.0,29.89,SW,216,3.0,9.0,56,0.00,,,0.00,weatherlink.com 1.10,2013-05-27 23:25:00,
2013-05-27 16:40:00,72.0,56.0,29.88,SSW,192,0.0,5.0,57,0.00,,,0.00,weatherlink.com 1.10,2013-05-27 23:40:00,
2013-05-27 16:55:00,72.0,55.0,29.88,East,79,4.0,8.0,55,0.00,,,0.00,weatherlink.com 1.10,2013-05-27 23:55:00,
2013-05-27 17:10:00,71.0,55.0,29.87,East,91,1.0,6.0,58,0.00,,,0.00,weatherlink.com 1.10,2013-05-28 00:10:00,
2013-05-27 17:25:00,71.1,55.0,29.87,WSW,241,0.0,5.0,58,0.00,,,0.00,weatherlink.com 1.10,2013-05-28 00:25:00,
2013-05-27 17:40:00,68.9,55.0,29.87,SE,141,2.0,7.0,62,0.00,,,0.00,weatherlink.com 1.10,2013-05-28 00:40:00,
2013-05-27 17:55:00,67.4,55.0,29.87,WSW,238,1.0,6.0,65,0.00,,,0.00,weatherlink.com 1.10,2013-05-28 00:55:00,
2013-05-27 18:10:00,67.0,56.0,29.87,WSW,237,0.0,5.0,67,0.00,,,0.00,weatherlink.com 1.10,2013-05-28 01:10:00,
2013-05-27 18:25:00,66.5,56.0,29.86,ESE,113,4.0,4.0,68,0.00,,,0.00,weatherlink.com 1.10,2013-05-28 01:25:00,
2013-05-27 18:40:00,65.9,55.0,29.86,ESE,105,1.0,2.0,69,0.00,,,0.00,weatherlink.com 1.10,2013-05-28 01:40:00,
2013-05-27 18:55:00,65.7,55.0,29.86,SSW,213,0.0,5.0,69,0.00,,,0.00,weatherlink.com 1.10,2013-05-28 01:55:00,
2013-05-27 19:10:00,65.4,55.0,29.86,SW,228,0.0,3.0,70,0.00,,,0.00,weatherlink.com 1.10,2013-05-28 02:10:00,
2013-05-27 19:25:00,64.9,56.0,29.86,SSE,160,0.0,1.0,72,0.00,,,0.00,weatherlink.com 1.10,2013-05-28 02:25:00,
2013-05-27 19:40:00,64.2,55.0,29.86,South,181,0.0,1.0,73,0.00,,,0.00,weatherlink.com 1.10,2013-05-28 02:40:00,
2013-05-27 19:55:00,63.7,55.0,29.86,SE,144,0.0,2.0,73,0.00,,,0.00,weatherlink.com 1.10,2013-05-28 02:55:00,
2013-05-27 20:10:00,63.5,55.0,29.86,WSW,246,0.0,2.0,74,0.00,,,0.00,weatherlink.com 1.10,2013-05-28 03:10:00,
2013-05-27 20:25:00,63.2,55.0,29.87,WSW,247,0.0,1.0,74,0.00,,,0.00,weatherlink.com 1.10,2013-05-28 03:25:00,
2013-05-27 20:40:00,62.6,56.0,29.87,SE,134,0.0,3.0,78,0.00,,,0.00,weatherlink.com 1.10,2013-05-28 03:40:00,
2013-05-27 20:55:00,62.5,56.0,29.86,East,100,0.0,3.0,78,0.00,,,0.00,weatherlink.com 1.10,2013-05-28 03:55:00,
2013-05-27 21:10:00,62.0,55.0,29.87,SSE,158,0.0,4.0,79,0.00,,,0.00,weatherlink.com 1.10,2013-05-28 04:10:00,
2013-05-27 21:25:00,61.0,55.0,29.88,SE,124,2.0,3.0,80,0.00,,,0.00,weatherlink.com 1.10,2013-05-28 04:25:00,
2013-05-27 21:40:00,60.0,55.0,29.88,SSE,153,0.0,2.0,82,0.00,,,0.00,weatherlink.com 1.10,2013-05-28 04:40:00,
2013-05-27 21:55:00,59.6,54.0,29.88,ESE,113,0.0,2.0,83,0.00,,,0.00,weatherlink.com 1.10,2013-05-28 04:55:00,
2013-05-27 22:10:00,59.4,54.0,29.88,ESE,122,0.0,1.0,83,0.00,,,0.00,weatherlink.com 1.10,2013-05-28 05:10:00,
2013-05-27 22:25:00,58.8,54.0,29.88,South,186,0.0,0.0,83,0.00,,,0.00,weatherlink.com 1.10,2013-05-28 05:25:00,
2013-05-27 22:40:00,58.3,54.0,29.88,South,186,0.0,1.0,85,0.00,,,0.00,weatherlink.com 1.10,2013-05-28 05:40:00,
2013-05-27 22:55:00,58.2,54.0,29.88,WSW,255,0.0,1.0,85,0.00,,,0.00,weatherlink.com 1.10,2013-05-28 05:55:00,
2013-05-27 23:10:00,58.0,54.0,29.88,WSW,255,0.0,0.0,85,0.00,,,0.00,weatherlink.com 1.10,2013-05-28 06:10:00,
2013-05-27 23:25:00,57.9,54.0,29.89,WSW,254,0.0,0.0,86,0.00,,,0.00,weatherlink.com 1.10,2013-05-28 06:25:00,
2013-05-27 23:40:00,57.6,54.0,29.88,WSW,254,0.0,0.0,86,0.00,,,0.00,weatherlink.com 1.10,2013-05-28 06:40:00,
2013-05-27 23:55:00,57.4,54.0,29.87,WSW,252,0.0,0.0,87,0.00,,,0.00,weatherlink.com 1.10,2013-05-28 06:55:00,